Voltar ao catálogo

STARLINK-35603

AtivoComunicaçõesVLEO
NORAD 66141·PAYLOAD·🇺🇸 United States

Lançado Oct 22, 2025 de Vandenberg Space Force Base

Loading…

Próximas Passagens (próximas 24 horas)

TLE

AtualizadoSource: CelesTrak SupGP

Época: Sep 14, 2026, 22:50 UTC

1 66141C 25237AD  26257.95187500  .00021165  00000+0  62519-3 0  2571
2 66141  53.1570 237.6019 0001460  97.1159  78.1712 15.34386598    11

Acompanhe STARLINK-35603 em tempo real com AllMySat

Download on the App Store